Location: *
(2.7500°S, 66.6833°W)
Time: 04:10:46
(UTC+00:00)

YAOGAN 1 - Pass Details

Date: 24 May 2024
Orbit: 611 x 614 km, 97.8° (Epoch: 23 June)

Event Time Altitude Azimuth Distance (km) Brightness Sun altitude
Exits shadow 23:18:13 16° 143° (SE) 1,596 4.2 -13.7°
Maximum altitude 23:21:15 41° 79° (ENE) 893 3.0 -14.4°
Drops below altitude 10° 23:25:16 10° 8° (N) 1,963 5.3 -15.3°
Sets 23:27:32 0° 1° (N) 2,863 6.2 -15.9°
